This is the latest recevied weather packets stored in our database for station/object HK4DAP-11. If no packets are shown the sender has not sent any weather packets the latest 10 day(s).
| Time | Temp. | Humidity | Pressure | Rain* | Wind** | Luminosity | Snow |
|---|---|---|---|---|---|---|---|
| 1787514206 | 27.78° C | 43% | 847.7 hPa | - | - | - | - |
| 1787513906 | 27.78° C | 43% | 847.6 hPa | - | - | - | - |
| 1787513605 | 27.78° C | 43% | 847.3 hPa | - | - | - | - |
| 1787513305 | 27.78° C | 44% | 847.9 hPa | - | - | - | - |
| 1787513005 | 27.78° C | 43% | 848 hPa | - | - | - | - |
| 1787512706 | 27.78° C | 44% | 848.1 hPa | - | - | - | - |
| 1787512405 | 28.33° C | 44% | 848.2 hPa | - | - | - | - |
| 1787512105 | 28.33° C | 45% | 848.2 hPa | - | - | - | - |
| 1787511808 | 28.33° C | 45% | 848.2 hPa | - | - | - | - |
| 1787511507 | 28.33° C | 47% | 848.3 hPa | - | - | - | - |
| 1787511204 | 27.78° C | 57% | 848.4 hPa | - | - | - | - |
| 1787510904 | 28.33° C | 51% | 848.6 hPa | - | - | - | - |
| 1787510604 | 28.33° C | 53% | 848.6 hPa | - | - | - | - |
| 1787510304 | 28.33° C | 55% | 848.6 hPa | - | - | - | - |
| 1787510004 | 28.33° C | 58% | 848.7 hPa | - | - | - | - |
| 1787509704 | 28.89° C | 65% | 848.9 hPa | - | - | - | - |
| 1787509404 | 28.89° C | 66% | 849 hPa | - | - | - | - |
| 1787509105 | 28.33° C | 62% | 849.1 hPa | - | - | - | - |
| 1787508806 | 28.33° C | 59% | 849.2 hPa | - | - | - | - |
| 1787508503 | 27.78° C | 53% | 849.2 hPa | - | - | - | - |
| 1787508203 | 27.22° C | 53% | 849.4 hPa | - | - | - | - |
| 1787507903 | 27.78° C | 54% | 849.6 hPa | - | - | - | - |
| 1787507603 | 27.78° C | 51% | 849.8 hPa | - | - | - | - |
| 1787507302 | 27.78° C | 52% | 849.7 hPa | - | - | - | - |
| 1787507004 | 27.78° C | 56% | 849.8 hPa | - | - | - | - |
* Rain since midnight (hover to see other rain measurements)
** Current wind speed in m/s (hover to see current wind gust speed)